TimeEDT,TemperatureF,Dew PointF,Humidity,Sea Level PressureIn,VisibilityMPH,Wind Direction,Wind SpeedMPH,Gust SpeedMPH,PrecipitationIn,Events,Conditions,WindDirDegrees,DateUTC
1:53 AM,48.9,39.0,69,30.07,10.0,SW,4.6,-,0.00,,Overcast,230,2012-10-14 05:53:00
2:53 AM,48.9,41.0,74,30.06,4.0,SW,9.2,-,0.03,Rain,Rain,230,2012-10-14 06:53:00
3:53 AM,48.9,42.1,77,30.05,10.0,SW,3.5,-,0.00,,Scattered Clouds,230,2012-10-14 07:53:00
4:53 AM,48.0,44.1,86,30.04,10.0,Calm,Calm,-,N/A,,Overcast,0,2012-10-14 08:53:00
5:53 AM,50.0,44.1,80,30.04,10.0,SW,4.6,-,0.01,Rain,Light Rain,230,2012-10-14 09:53:00
6:53 AM,51.1,45.0,80,30.04,10.0,SSW,3.5,-,0.00,Rain,Light Rain,200,2012-10-14 10:53:00
7:53 AM,52.0,46.0,80,30.04,10.0,SW,5.8,-,0.00,,Partly Cloudy,220,2012-10-14 11:53:00
8:53 AM,54.0,46.0,75,30.05,10.0,WSW,3.5,-,N/A,,Overcast,240,2012-10-14 12:53:00
9:53 AM,57.0,46.0,67,30.04,10.0,Calm,Calm,-,N/A,,Overcast,0,2012-10-14 13:53:00
10:53 AM,62.1,48.9,62,30.01,10.0,Calm,Calm,-,N/A,,Partly Cloudy,0,2012-10-14 14:53:00
11:53 AM,64.9,51.1,61,30.00,10.0,SSW,17.3,-,N/A,,Scattered Clouds,210,2012-10-14 15:53:00
12:53 PM,69.1,53.1,57,29.96,10.0,SW,8.1,-,N/A,,Clear,220,2012-10-14 16:53:00
1:53 PM,72.0,55.0,55,29.93,10.0,SSW,11.5,19.6,N/A,,Scattered Clouds,210,2012-10-14 17:53:00
2:53 PM,73.9,54.0,50,29.88,10.0,South,11.5,21.9,N/A,,Partly Cloudy,190,2012-10-14 18:53:00
4:53 PM,69.1,50.0,51,29.85,10.0,SSW,18.4,29.9,N/A,,Clear,200,2012-10-14 20:53:00
5:53 PM,68.0,50.0,52,29.84,10.0,SSW,10.4,20.7,N/A,,Clear,210,2012-10-14 21:53:00
6:53 PM,66.0,48.9,54,29.83,10.0,Calm,Calm,-,N/A,,Clear,0,2012-10-14 22:53:00
7:53 PM,64.9,48.9,56,29.84,10.0,South,6.9,-,N/A,,Clear,180,2012-10-14 23:53:00
8:53 PM,64.0,48.9,58,29.84,10.0,SW,10.4,26.5,N/A,,Clear,220,2012-10-15 00:53:00
9:53 PM,64.0,50.0,60,29.81,10.0,SW,10.4,26.5,N/A,,Mostly Cloudy,220,2012-10-15 01:53:00
10:53 PM,64.0,50.0,60,29.78,10.0,SSW,10.4,20.7,N/A,,Partly Cloudy,200,2012-10-15 02:53:00
11:53 PM,64.0,51.1,63,29.76,10.0,SW,10.4,19.6,N/A,,Mostly Cloudy,220,2012-10-15 03:53:00